Location: Prairie Dale
(45.6972°N, 104.5033°W)
Time: 13:20:02
(UTC+00:00)

DX 1 - Pass Details

Date: 09 July 2022
Orbit: 616 x 630 km, 98.4° (Epoch: 18 August)

Event Time Altitude Azimuth Distance (km) Brightness Sun altitude
Rises 05:37:11 0° 358° (N) 2,928 ? -19.2°
Reaches altitude 10° 05:40:05 10° 337° (NNW) 2,013 ? -19.4°
Maximum altitude 05:42:46 16° 299° (WNW) 1,634 ? -19.5°
Drops below altitude 10° 05:45:26 10° 261° (W) 2,000 ? -19.7°
Sets 05:48:18 0° 240° (WSW) 2,899 ? -19.8°
